Regional Weather Roundup
Issued by NWS Charleston, SC

Current Version | Previous Version | Text Only | Print | Product List | Glossary Off
Versions: 1 2 3 4 5 6 7 8 9 10 11 12 13 14 15 16 17 18 19 20 21 22 23 24 25 26 27 28 29 30 31 32 33 34 35 36 37 38 39 40 41 42 43 44 45 46 47 48 49 50

000
ASUS42 KCHS 261112
RWRCHS

REGIONAL WEATHER ROUNDUP
NATIONAL WEATHER SERVICE CHARLESTON SC
700 AM EDT SUN MAR 26 2017

NOTE: "FAIR" INDICATES FEW OR NO CLOUDS BELOW 12,000 FEET WITH NO
SIGNIFICANT WEATHER AND/OR OBSTRUCTIONS TO VISIBILITY.

NOT ALL STATIONS ARE QUALITY CONTROLLED. USE DATA WITH CAUTION...
ESPECIALLY DEWPOINT OBSERVATIONS.

SCZ027-030-031-034>040-042>050-261200-
...SOUTHEAST SOUTH CAROLINA...

CITY           SKY/WX    TMP DP  RH WIND       PRES   REMARKS
N CHARLESTON   CLOUDY    55  54  96 CALM      30.18R
WATERFRONT PRK   N/A     61  59  93 CALM      30.17S
JOHNS ISLAND   FAIR      57  55  94 CALM      30.18S
PINOPOLIS        N/A     57  55  94 VRB2      30.09R
MONCKS CORNER  FAIR      50  50 100 CALM      30.19R
SUMMERVILLE    FAIR      52  50  93 CALM      30.19R
BEAUFORT MCAS  PTCLDY    57  56  96 CALM      30.16S
BEAUFORT ARPT  FAIR      57  55  94 CALM      30.16S
HILTON HEAD IS PTCLDY    59  59 100 SE6       30.16F
WALTERBORO     MOSUNNY   52  52 100 E5        30.17S
ALLENDALE      FAIR      55  54  94 CALM      30.15S

...SOUTHERN MIDLANDS AND PEE DEE...

CITY           SKY/WX    TMP DP  RH WIND       PRES   REMARKS
GEORGETOWN     FAIR      50  50 100 CALM      30.21R
KINGSTREE      FAIR      50  46  87 CALM      30.19S
ORANGEBURG     MOCLDY    53  52  96 E3        30.17R
BARNWELL       FAIR      55  55 100 CALM      30.16R
AIKEN          FAIR      55  52  88 SE5       30.18S
MANNING        FAIR      52  50  93 CALM      30.19R
COLUMBIA       MOCLDY    56  53  90 E3        30.16R
SUMTER         CLOUDY    53  50  92 CALM      30.16R
FLORENCE       PTCLDY    53  53 100 CALM      30.19S
MYRTLE BEACH   MOCLDY    57  54  88 CALM      30.20S
N MYRTLE BEACH CLOUDY    58  57  97 NE3       30.21R

$$

GAZ063-065-086>088-099>101-113>116-118-119-134>141-150-261200-
...SOUTHEAST GEORGIA...

CITY           SKY/WX    TMP DP  RH WIND       PRES   REMARKS
SAVANNAH ARPT  MOCLDY    59  54  83 S3        30.15S
HUNTER AAF     PTCLDY    60  59  97 CALM      30.13S
FORT STEWART   MOCLDY    55  53  94 CALM      30.13R
STATESBORO     PTCLDY    55  32  41 CALM      30.15R
SYLVANIA       MOSUNNY  N/A N/A N/A CALM      30.16S
CLAXTON        FAIR     N/A N/A N/A CALM      30.15R

...CSRA...CENTRAL AND FAR SOUTHEAST GEORGIA...

CITY           SKY/WX    TMP DP  RH WIND       PRES   REMARKS
THOMSON        CLOUDY    60  55  83 W3        30.19R
AUGUSTA-BUSH   CLOUDY    57  54  89 SE5       30.14R
AUGUSTA-DANIEL CLOUDY    58  53  84 SE5       30.15R
SWAINSBORO     FAIR      59  57  94 SE3       30.15S
VIDALIA        MOCLDY    61  59  94 CALM      30.15R
EASTMAN        FAIR      62  61  98 CALM      30.16R
HAZLEHURST     FAIR      61  61 100 SE3       30.13R
ALMA           MOCLDY    56  56 100 CALM      30.14R
WAYCROSS       FOG       59  59 100 CALM      30.15R VSB 1/2
JESUP          CLOUDY    57  54  88 CALM      30.14S
BAXLEY         FAIR      59  59 100 S3        30.14R
BRUNSWICK      CLEAR     55  55 100 NE3       30.16S
SAINT SIMONS   CLEAR     61  58  90 E5        30.14S

$$

SCZ027-028-034-036>038-045-046-048>050-GAZ119-141-261200-
...LAKE AND SUPPLEMENTAL COASTAL OBSERVATIONS...

STATION/POSITION TIME  TEMP    WIND        PRES    WAVE   SWELL
                       AIR SEA DIR/SP/G            HT/PER HT/PER/DIR
                 (UTC) (F)     (DEG/KT/KT) (MB)    (FT/S) (FT/S/D)
WINYAH BAY       NOT AVBL
LAKE MURRAY      1020   59     140/  2/  5 1020.7
ACE BASIN NERRS  NOT AVBL
FORT PULASKI     1048   65 62  140/  6/  9 1021.2F
SAPELO ISLAND    1000   59     110/  3     1021.0

$$

ANZ835-935-AMZ111-154-330-350-352-354-370-450-454-472-261200-
...C-MAN AND BUOY OBSERVATIONS...

STATION/POSITION TIME  TEMP    WIND        PRES    WAVE   SWELL
                       AIR SEA DIR/SP/G            HT/PER HT/PER/DIR
                 (UTC) (F)     (DEG/KT/KT) (MB)    (FT/S) (FT/S/D)
BUOY 41004       0950   71 73  160/ 14/ 17 1021.1    4/ 8   3/150/ 8
BUOY 41008       0950   64 62  110/  4/  6 1020.6    4/ 9   3/130/ 9
FOLLY BEACH CMAN 1000   62     150/  3/  4 1022.1R
CAPERS NEARSHORE 1008   62     140/  4/  6 1021.6R
FRIPP NEARSHORE  1008   62 60  120/  4/  6 1021.0S


STATION/POSITION TIME  TEMP    WIND        PRES    WAVE   SWELL
                       AIR SEA DIR/SP/G            HT/PER HT/PER/DIR
                 (UTC) (F)     (DEG/KT/KT) (MB)    (FT/S) (FT/S/D)
5E ST. MARYS GA  1030      64                N/A     4/ 9
FRYING PAN BUOY  1050   70 75  160/ 10/ 12 1023.3R   4/ 8   3/160/ 8
BUOY 41025       1050   68 75  180/ 14/ 17 1024.4R   3/ 8   2/160/ 8
CAPE LOOKOUT NC  1000   66     190/  4/  4 1023.6R
BUOY 41002       1050   67 72  100/ 14/ 17 1023.9R   5/ 8   3/140/ 8
BUOY 41010       NOT AVBL
ST AUGUSTINE FL  1100   65 67  360/  2/  2 1021.5R


$$



USA.gov is the U.S. government's official web portal to all federal, state and local government web resources and services.